Simultaneous Nadir Overpasses (SNOs) Predictions

Prediction of SNOs between GOES-15 and TERRA Satellite Orbit:

Table of predicted SNOs for the next 14.0 days since TLE Epoch: 2/5/2022
Index Date Time (GOES-15) GOES-15 Lat,Lon TERRA Lat,Lon Distance(km) Time Diff (sec)
1 02/05/2022 06:37:43 0.00,-128.18 0.86,-124.14 459.50 80
2 02/05/2022 18:58:58 -0.00,-128.21 0.22,-129.30 124.55 80
3 02/07/2022 18:49:23 -0.00,-128.18 -0.39,-126.34 209.20 80
4 02/08/2022 07:10:45 -0.00,-128.15 -0.74,-131.53 384.93 80
5 02/10/2022 06:58:30 -0.00,-128.12 -0.12,-128.57 51.84 80
6 02/12/2022 06:43:36 -0.01,-128.08 0.51,-125.61 280.77 80
7 02/12/2022 19:04:50 0.01,-128.10 0.56,-130.77 303.84 80
8 02/14/2022 18:55:14 0.01,-128.06 -0.02,-127.80 28.27 80
9 02/16/2022 18:42:59 0.01,-128.01 -0.67,-124.85 359.84 80
10 02/17/2022 07:04:22 -0.01,-127.97 -0.44,-130.04 234.57 80
